Overview Statistics Trail Chart Weather Telemetry Raw packets
 

This is the latest recevied weather packets stored in our database for station/object NC4M. If no packets are shown the sender has not sent any weather packets the latest 10 day(s).

<< 103 104 105 106 107 108 109 >>
Time Temp. Humidity Pressure Rain* Wind** Luminosity Snow
1787788471 27.78° C 64% 1015.6 hPa 0 mm - 24 W/m² -
1787788166 28.33° C 65% 1015.8 hPa 0 mm - 29 W/m² -
1787787861 28.89° C 63% 1015.6 hPa 0 mm - 33 W/m² -
1787787560 29.44° C 61% 1015.6 hPa 0 mm - 35 W/m² -
1787787255 29.44° C 58% 1015.4 hPa 0 mm - 37 W/m² -
1787786954 29.44° C 57% 1015.5 hPa 0 mm - 39 W/m² -
1787786649 30° C 63% 1015.4 hPa 0 mm - 41 W/m² -
1787786348 30° C 55% 1015.4 hPa 0 mm - 44 W/m² -
1787786045 30° C 56% 1015.4 hPa 0 mm - 46 W/m² -
1787785741 30° C 54% 1015.3 hPa 0 mm - 46 W/m² -
1787785435 30° C 54% 1015.3 hPa 0 mm - 52 W/m² -
1787785134 30.56° C 57% 1015.4 hPa 0 mm - 54 W/m² -
1787784830 30.56° C 54% 1015.3 hPa 0 mm - 55 W/m² -
1787784529 30.56° C 53% 1015.5 hPa 0 mm - 56 W/m² -
1787784223 30.56° C 54% 1015.4 hPa 0 mm - 56 W/m² -
1787783918 30.56° C 56% 1015.5 hPa 0 mm - 60 W/m² -
1787783615 31.11° C 55% 1015.5 hPa 0 mm - 65 W/m² -
1787783313 31.11° C 52% 1015.7 hPa 0 mm - 70 W/m² -
1787783010 31.67° C 53% 1015.4 hPa 0 mm - 76 W/m² -
1787782708 31.67° C 51% 1015.5 hPa 0 mm - 73 W/m² -
1787782405 32.22° C 51% 1015.6 hPa 0 mm - 74 W/m² -
1787782100 32.22° C 47% 1015.7 hPa 0 mm - 337 W/m² -
1787781795 32.78° C 46% 1015.8 hPa 0 mm - 359 W/m² -
1787781493 33.33° C 48% 1015.7 hPa 0 mm - 310 W/m² -
1787781192 32.78° C 54% 1015.7 hPa 0 mm - 394 W/m² -

* Rain latest hour (hover to see other rain measurements)
** Current wind speed in m/s (hover to see current wind gust speed)